Location: Henham
(51.9333°N, 0.2500°E)
Time: 22:33:42
(UTC+00:00)

SJ 16-02 - Pass Details

Date: 23 October 2019
Orbit: 607 x 616 km, 75.0° (Epoch: 22 November)

Event Time Altitude Azimuth Distance (km) Brightness Sun altitude
Rises 20:27:16 0° 321° (NW) 2,880 5.7 -33.6°
Reaches altitude 10° 20:30:30 10° 296° (WNW) 1,967 4.7 -34.0°
Maximum altitude 20:32:41 14° 266° (W) 1,728 4.2 -34.3°
Enters shadow 20:33:30 13° 254° (WSW) 1,760 4.1 -34.5°
